Location: Peterborough
(44.3091°N, 78.3197°W)
Time: 01:54:07
(UTC-04:00)

Vanguard 2 Rocket - Pass Details

Date: 25 March 2023
Orbit: 554 x 3314 km, 32.9° (Epoch: 02 June)

Event Time Altitude Azimuth Distance (km) Brightness Sun altitude
Rises 04:06:38 0° 269° (W) 6,202 - -30.8°
Reaches altitude 10° 04:13:07 10° 250° (WSW) 5,658 - -29.9°
Maximum altitude 04:21:46 16° 221° (SW) 5,591 - -28.6°
Exits shadow 04:31:17 10° 192° (SSW) 6,258 10.7 -27.2°
Drops below altitude 10° 04:31:19 10° 192° (SSW) 6,261 10.7 -27.2°
Sets 04:39:31 0° 173° (S) 7,202 11.2 -26.0°
